Flag for Bosnia-Herzegovina Weather past 2 weeks in Sarajevo, Bosnia-Herzegovina

Now
30 °F

Light snow. Ice fog.


Feels Like: 30 °F
Forecast: 24 / 34 °F
Wind: 2 mph from North

Location: Sarajevo / Butmir

Current Time: Jan 26, 2015 at 6:08:49 AM

Latest Report: Jan 26, 2015 at 5:30 AM


Visibility: 2 mi

Pressure: 30.15 "Hg

Humidity: 93%

Dew point: 28 °F

Location of SarajevoLocation

Historic Weather in Sarajevo — Graph

°F

Sarajevo temperature yesterday

Maximum temperature yesterday: 34 °F (at 12:00 AM)
Minimum temperature yesterday: 30 °F (at 8:30 AM)
Average temperature yesterday: 31 °F

Past Weeks' High & Low Weather Summary

 TemperatureHumidityPressure
High55 °F (Jan 18, 3:00 AM)100% (Jan 11, 5:00 AM)30.48 "Hg (Jan 11, 5:00 AM)
Low19 °F (Jan 14, 6:30 AM)59% (Jan 18, 3:00 AM)29.71 "Hg (Jan 23, 4:00 AM)
Average35 °F94%30.04 "Hg
* Reported Jan 11 5:00 AM — Jan 26 5:00 AM, Sarajevo, Weather by CustomWeather, © 2014

Note: Actual official high and low records may vary slightly from our data, if they occured in-between our weather recording intervals... More about our weather records

Advertising

Sarajevo weather history for previous 24 hours

 ConditionsComfort  
Time TempWeatherWind HumidityBarometerVisibility
5:00 AM
Jan 26
30 °FLight snow. Ice fog.1 mph93%30.15 "Hg2 mi
4:00 AM30 °FLight snow. Ice fog.2 mph93%30.15 "Hg3 mi
3:00 AM30 °FLight snow. Mostly cloudy.2 mph93%30.15 "Hg4 mi
2:00 AM30 °FLight snow. Mostly cloudy.1 mph93%30.15 "HgN/A
1:00 AM30 °FMostly cloudy.3 mph93%30.12 "HgN/A
12:00 AM30 °FLight snow. Mostly cloudy.3 mph93%30.12 "HgN/A
11:00 PM
Jan 25
30 °FLight snow. Mostly cloudy.3 mph93%30.12 "HgN/A
10:00 PM30 °FLight snow. Mostly cloudy.3 mph93%30.12 "HgN/A
9:30 PM30 °FLight snow. Mostly cloudy.2 mph93%30.12 "HgN/A
9:00 PM30 °FLight snow. Partly cloudy.3 mph93%30.09 "HgN/A
8:30 PM30 °FLight snow. Mostly cloudy.3 mph93%30.09 "HgN/A
8:00 PM30 °FMostly cloudy.5 mph93%30.09 "HgN/A
7:30 PM30 °FLight snow. Ice fog.5 mph93%30.09 "Hg3 mi
7:00 PM30 °FLight snow. Ice fog.6 mph93%30.09 "Hg3 mi
6:30 PM30 °FLight snow. Ice fog.3 mph93%30.09 "Hg3 mi
6:00 PM30 °FLight snow. Ice fog.6 mph93%30.07 "Hg3 mi
5:30 PM30 °FLight snow. Passing clouds.3 mph93%30.07 "Hg4 mi
5:00 PM30 °FLight snow. Passing clouds.6 mph93%30.07 "Hg4 mi
4:30 PM32 °FLight snow. Partly sunny.6 mph93%30.04 "Hg4 mi
4:00 PM32 °FLight snow. Broken clouds.9 mph93%30.04 "Hg4 mi
3:30 PM32 °FLight snow. Ice fog.7 mph100%30.01 "Hg3 mi
3:00 PM32 °FLight snow. Ice fog.7 mph93%30.01 "Hg2 mi
2:30 PM32 °FSnow. Ice fog.5 mph100%30.01 "Hg1 mi
2:00 PM32 °FSnow. Ice fog.7 mph93%30.01 "Hg1 mi
1:30 PM32 °FLight snow. Ice fog.6 mph93%30.01 "Hg1 mi
1:00 PM32 °FLight snow. Ice fog.6 mph93%30.01 "Hg2 mi
12:30 PM32 °FLight snow. Ice fog.7 mph93%29.98 "Hg2 mi
12:00 PM32 °FLight snow. Ice fog.6 mph93%30.01 "Hg2 mi
11:30 AM32 °FLight snow. Ice fog.7 mph93%29.98 "Hg2 mi
11:00 AM32 °FLight snow. Ice fog.7 mph93%29.98 "Hg2 mi
10:30 AM32 °FLight snow. Ice fog.6 mph93%29.98 "Hg2 mi
10:00 AM32 °FLight snow. Ice fog.7 mph93%29.98 "Hg2 mi
9:30 AM32 °FSnow. Ice fog.6 mph93%29.98 "Hg1 mi
9:00 AM30 °FLight snow. Ice fog.6 mph100%29.98 "Hg1 mi
8:30 AM30 °FLight snow. Ice fog.6 mph100%29.95 "Hg2 mi
8:00 AM32 °FLight snow. Ice fog.7 mph87%29.95 "Hg2 mi
7:30 AM32 °FLight snow. Broken clouds.7 mph87%29.92 "Hg4 mi
7:00 AM32 °FLight snow. Partly cloudy.7 mph87%29.92 "HgN/A
6:30 AM32 °FLight snow. Partly cloudy.5 mph87%29.92 "HgN/A
6:00 AM32 °FLight snow. Partly cloudy.6 mph87%29.89 "HgN/A
Weather by CustomWeather, © 2014

See weather overviewHow to use our weather pages